Orlando International, FL

10:57 AM EST on February 21, 2018 (GMT -0500)
Orlando International

Weather History for KMCO - September, 2011

Change the Weather History Date:

Wednesday, September 28, 2011

  Actual Average Record
Temperature  
Mean Temperature 83 °F 80 °F  
Max Temperature 92 °F 88 °F 98 °F (1921)
Min Temperature 74 °F 71 °F 59 °F (1931)
Degree Days  
Heating Degree Days 0 0  
Month to date heating degree days 0 0  
Since 1 July heating degree days 0 0  
Cooling Degree Days 18 15  
Month to date cooling degree days 467 454  
Year to date cooling degree days 3202 2847  
Growing Degree Days 32 (Base 50)    
Moisture  
Dew Point 73 °F    
Average Humidity 75    
Maximum Humidity 100    
Minimum Humidity 49    
Precipitation  
Precipitation 0.01 in 0.18 in 2.68 in (1905)
Month to date precipitation 5.85 5.70  
Year to date precipitation 47.08 42.31  
Sea Level Pressure  
Sea Level Pressure 29.89 in    
Wind  
Wind Speed 4 mph (NNW)    
Max Wind Speed 14 mph    
Max Gust Speed 17 mph    
Visibility 10 miles    
Events Rain , Thunderstorm    
T = Trace of Precipitation, MM = Missing Value Source: NWS Daily Summary

Daily Weather History Graph

Daily Weather History Graph

Search for Another Location

Airport or City:

Trip Planner

Search our weather history database for the weather conditions in past years. The results will help you decide how hot, cold, wet, or windy it might be!

Date:

Astronomy

Sep. 28, 2011 Rise Set
Actual Time 7:16 AM EDT 7:14 PM EDT
Civil Twilight 6:53 AM EDT 7:38 PM EDT
Nautical Twilight 6:25 AM EDT 8:05 PM EDT
Astronomical Twilight 5:58 AM EDT 8:33 PM EDT
Moon 8:31 AM EDT (9/28) 7:59 PM EDT (9/28)
Length of Visible Light 12h 45m
Length of Day
11h 58m
New Moon, 2% of the Moon is Illuminated
Sep 28
New Moon
Oct 3
First Quarter
Oct 11
Full
Oct 19
Last Quarter
Oct 26
New

Hourly Weather History & Observations

Time (EDT) Temp. Heat Index Dew Point Humidity Pressure Visibility Wind Dir Wind Speed Gust Speed Precip Events Conditions
12:53 AM 75.9 °F - 73.9 °F 94% 29.93 in 10.0 mi Calm Calm - N/A   Mostly Cloudy
1:53 AM 73.9 °F - 73.9 °F 100% 29.91 in 10.0 mi South 4.6 mph - N/A   Partly Cloudy
2:53 AM 75.0 °F - 73.9 °F 96% 29.90 in 10.0 mi SSW 3.5 mph - N/A   Clear
3:53 AM 75.0 °F - 73.9 °F 96% 29.89 in 10.0 mi Calm Calm - N/A   Clear
4:53 AM 75.0 °F - 73.9 °F 96% 29.89 in 10.0 mi Calm Calm - N/A   Partly Cloudy
5:53 AM 75.0 °F - 73.9 °F 96% 29.90 in 10.0 mi Calm Calm - N/A   Partly Cloudy
6:53 AM 75.0 °F - 73.9 °F 96% 29.91 in 10.0 mi Calm Calm - N/A   Partly Cloudy
7:53 AM 75.9 °F - 73.9 °F 94% 29.92 in 10.0 mi Calm Calm - N/A   Scattered Clouds
8:53 AM 79.0 °F - 73.9 °F 84% 29.93 in 10.0 mi NW 5.8 mph - N/A   Partly Cloudy
9:53 AM 82.9 °F 88.8 °F 73.0 °F 72% 29.94 in 10.0 mi NNW 6.9 mph - N/A   Partly Cloudy
10:53 AM 84.9 °F 91.4 °F 73.0 °F 67% 29.94 in 10.0 mi NNW 6.9 mph - N/A   Partly Cloudy
11:53 AM 88.0 °F 95.6 °F 73.0 °F 61% 29.94 in 10.0 mi Variable 5.8 mph - N/A   Scattered Clouds
12:53 PM 88.0 °F 92.9 °F 70.0 °F 55% 29.92 in 10.0 mi Variable 4.6 mph - N/A   Scattered Clouds
1:53 PM 88.0 °F 92.1 °F 69.1 °F 53% 29.91 in 10.0 mi Variable 3.5 mph - N/A   Scattered Clouds
2:53 PM 90.0 °F 94.5 °F 69.1 °F 50% 29.88 in 10.0 mi West 3.5 mph - N/A   Scattered Clouds
3:53 PM 91.0 °F 96.6 °F 70.0 °F 50% 29.86 in 10.0 mi West 3.5 mph - N/A   Scattered Clouds
4:53 PM 91.0 °F 95.6 °F 69.1 °F 48% 29.85 in 10.0 mi Calm Calm - N/A   Mostly Cloudy
5:53 PM 91.0 °F 95.6 °F 69.1 °F 48% 29.84 in 10.0 mi Calm Calm - N/A   Mostly Cloudy
6:53 PM 86.0 °F 93.8 °F 73.9 °F 67% 29.84 in 10.0 mi ESE 9.2 mph - 0.00 in Rain Light Rain
7:35 PM 80.1 °F 83.6 °F 71.1 °F 74% 29.85 in 10.0 mi East 10.4 mph - 0.00 in Thunderstorm Thunderstorm
7:53 PM 81.0 °F 85.8 °F 73.0 °F 77% 29.85 in 10.0 mi ENE 9.2 mph - 0.00 in Rain , Thunderstorm Light Thunderstorms and Rain
8:53 PM 77.0 °F - 73.9 °F 90% 29.88 in 10.0 mi WNW 6.9 mph - 0.00 in Rain , Thunderstorm Light Thunderstorms and Rain
9:06 PM 77.0 °F - 73.0 °F 88% 29.88 in 10.0 mi Calm Calm - 0.01 in Rain Light Rain
9:53 PM 77.0 °F - 75.0 °F 94% 29.89 in 10.0 mi NNW 3.5 mph - 0.01 in   Scattered Clouds
10:53 PM 77.0 °F - 75.0 °F 94% 29.90 in 10.0 mi East 5.8 mph - N/A   Partly Cloudy
11:53 PM 77.0 °F - 75.0 °F 94% 29.90 in 10.0 mi SE 5.8 mph - N/A   Partly Cloudy